GW6230 Weather Reports


time (UTC)temp
C
wind
direction
speed
KPH
gust
KPH
rain 1hr
cm
rain 24hr
cm
rain mn
cm
humidity
%
barometer
mb
20260510071719 9 15 0.0 0.0 0.00 0.00 0.00 98 1012.3
20260510071216 9 15 0.0 0.0 0.00 0.00 0.00 97 1011.9
20260510070714 9 74 0.0 0.0 0.00 0.00 0.00 97 1012.1
20260510070211 9 74 0.0 0.0 0.00 0.00 0.00 97 1012.3
20260510065706 9 60 0.0 0.0 0.00 0.00 0.00 97 1012.2
20260510065202 9 81 0.0 0.0 0.00 0.00 0.00 97 1012.4
20260510064659 9 66 0.0 1.6 0.00 0.00 0.00 97 1012.2
20260510064156 10 81 0.0 0.0 0.00 0.00 0.00 97 1012.1
20260510063653 10 81 0.0 0.0 0.00 0.00 0.00 97 1012.2
20260510063149 10 90 0.0 0.0 0.00 0.00 0.00 97 1012.2
20260510062646 10 90 0.0 1.6 0.00 0.00 0.00 96 1012.1
20260510062142 10 66 0.0 0.0 0.00 0.00 0.00 96 1012.4
20260510061637 10 66 0.0 3.2 0.00 0.00 0.00 96 1012.3
20260510061135 10 74 0.0 1.6 0.00 0.00 0.00 96 1012.3
20260510060631 10 249 0.0 1.6 0.00 0.00 0.00 96 1012.3
20260510060127 10 258 0.0 3.2 0.00 0.00 0.00 96 1012.4
20260510055624 10 68 0.0 0.0 0.00 0.00 0.00 96 1012.1
20260510055122 10 279 0.0 3.2 0.00 0.00 0.00 96 1012.3
20260510054617 10 210 0.0 4.8 0.00 0.00 0.00 96 1012.4
20260510054113 10 195 0.0 3.2 0.00 0.00 0.00 96 1012.2
20260510053612 10 240 0.0 1.6 0.00 0.00 0.00 96 1012.5
20260510053109 10 246 0.0 1.6 0.00 0.00 0.00 96 1012.4
20260510052605 10 188 0.0 0.0 0.00 0.00 0.00 96 1012.2
20260510052102 10 286 0.0 1.6 0.00 0.00 0.00 96 1012.3
20260510051557 10 262 0.0 1.6 0.00 0.00 0.00 96 1012.4
20260510051054 10 203 0.0 1.6 0.00 0.00 0.00 96 1012.5
20260510050551 10 254 0.0 3.2 0.00 0.00 0.00 96 1012.3
20260510050049 10 261 0.0 1.6 0.00 0.00 0.00 96 1012.5
20260510045546 10 270 0.0 3.2 0.00 0.00 0.00 96 1012.3
20260510045041 10 188 0.0 0.0 0.00 0.00 0.00 96 1012.5
20260510044538 10 188 0.0 0.0 0.00 0.00 0.00 96 1012.5
20260510044036 10 188 0.0 0.0 0.00 0.00 0.00 96 1012.4
20260510043531 10 97 0.0 1.6 0.00 0.00 0.00 96 1012.4
20260510043027 10 291 0.0 1.6 0.00 0.00 0.00 96 1012.4
20260510042521 10 99 0.0 0.0 0.00 0.00 0.00 96 1012.2
20260510042016 10 99 0.0 0.0 0.00 0.00 0.00 96 1012.3
20260510041514 10 243 0.0 0.0 0.00 0.00 0.00 96 1012.1
20260510041011 10 243 0.0 0.0 0.00 0.00 0.00 96 1012.3
20260510040508 10 74 0.0 0.0 0.00 0.00 0.00 95 1011.9
20260510040003 10 74 0.0 0.0 0.00 0.36 0.36 95 1011.9
20260510035500 10 99 0.0 0.0 0.00 0.36 0.36 95 1012.2
20260510034959 10 120 0.0 0.0 0.00 0.36 0.36 95 1012.2
20260510034459 10 106 0.0 0.0 0.00 0.36 0.36 95 1012.1
20260510033954 10 246 0.0 1.6 0.00 0.36 0.36 95 1011.9
20260510033450 10 257 0.0 3.2 0.00 0.36 0.36 95 1011.8
20260510032948 10 98 0.0 1.6 0.00 0.36 0.36 95 1011.8
20260510032445 10 74 0.0 0.0 0.00 0.36 0.36 95 1011.6
20260510031944 10 74 0.0 0.0 0.00 0.36 0.36 95 1011.4
20260510031440 10 74 0.0 0.0 0.00 0.36 0.36 94 1011.6
20260510030936 10 74 0.0 1.6 0.00 0.36 0.36 94 1011.5
20260510030432 10 74 0.0 1.6 0.00 0.36 0.36 94 1011.6
20260510025930 10 82 0.0 1.6 0.00 0.36 0.36 94 1011.6
20260510025427 10 90 0.0 0.0 0.00 0.36 0.36 95 1011.4
20260510024924 10 81 0.0 0.0 0.00 0.36 0.36 94 1011.5
20260510024420 10 81 0.0 0.0 0.00 0.36 0.36 94 1011.3
20260510023916 10 240 0.0 1.6 0.00 0.36 0.36 94 1011.6
20260510023413 10 206 1.6 1.6 0.00 0.36 0.36 94 1011.2
20260510022910 10 216 0.0 3.2 0.00 0.36 0.36 94 1011.5
20260510022409 10 278 0.0 0.0 0.00 0.36 0.36 94 1011.4
20260510021908 10 278 0.0 0.0 0.00 0.36 0.36 93 1011.2
20260510021407 11 291 0.0 0.0 0.00 0.36 0.36 93 1011.3
20260510020903 11 246 0.0 1.6 0.00 0.36 0.36 93 1011.2
20260510020358 11 209 0.0 0.0 0.00 0.36 0.36 93 1011.2
20260510015854 11 209 0.0 0.0 0.00 0.36 0.36 92 1011.1
20260510015350 11 234 0.0 0.0 0.00 0.36 0.36 92 1010.9
20260510014845 11 221 0.0 3.2 0.00 0.36 0.36 92 1010.9
20260510014342 11 74 0.0 1.6 0.00 0.36 0.36 91 1010.8
20260510013838 11 279 0.0 0.0 0.00 0.36 0.36 91 1011.0
20260510013334 11 279 0.0 0.0 0.00 0.36 0.36 91 1010.5
20260510012829 11 254 0.0 0.0 0.00 0.36 0.36 90 1010.4
20260510012329 12 254 0.0 0.0 0.00 0.36 0.36 90 1010.6
20260510011824 12 261 0.0 3.2 0.00 0.36 0.36 89 1010.6
20260510011320 12 261 0.0 0.0 0.00 0.36 0.36 89 1010.6
20260510010817 12 270 0.0 0.0 0.00 0.36 0.36 88 1010.3
20260510010314 12 165 0.0 0.0 0.00 0.36 0.36 87 1010.2
20260510005811 13 270 0.0 0.0 0.00 0.36 0.36 86 1010.2
20260510005307 13 90 0.0 3.2 0.00 0.36 0.36 85 1010.3
20260510004805 13 277 0.0 3.2 0.00 0.36 0.36 87 1010.2
20260510004302 13 209 0.0 1.6 0.00 0.36 0.36 85 1010.3
20260510003759 13 270 0.0 1.6 0.00 0.36 0.36 84 1010.1
20260510003256 14 225 3.2 3.2 0.00 0.36 0.36 82 1009.9
20260510002754 14 270 0.0 1.6 0.00 0.36 0.36 80 1009.8
20260510002253 15 261 0.0 3.2 0.00 0.36 0.36 78 1009.9
20260510001749 15 200 0.0 1.6 0.00 0.36 0.36 76 1009.7
20260510001247 15 270 0.0 0.0 0.00 0.36 0.36 74 1009.7
20260510000743 16 180 0.0 0.0 0.00 0.36 0.36 72 1009.7
20260510000241 16 180 0.0 3.2 0.00 0.36 0.36 71 1009.6
20260509235737 16 107 0.0 3.2 0.00 0.36 0.36 70 1009.4
20260509235233 17 225 3.2 3.2 0.00 0.36 0.36 68 1009.6
20260509234729 17 285 0.0 3.2 0.00 0.36 0.36 68 1009.4
20260509234227 17 278 0.0 1.6 0.00 0.36 0.36 66 1009.4
20260509233725 18 270 0.0 4.8 0.00 0.36 0.36 64 1009.4
20260509233222 18 79 3.2 4.8 0.00 0.36 0.36 63 1009.5
20260509232718 18 18 0.0 4.8 0.00 0.36 0.36 61 1009.4
20260509232215 18 134 6.4 8.0 0.00 0.36 0.36 60 1009.3
20260509231711 20 185 1.6 9.7 0.00 0.36 0.36 57 1009.4
20260509231209 20 246 3.2 4.8 0.00 0.36 0.36 58 1009.3
20260509230707 20 213 3.2 6.4 0.00 0.36 0.36 57 1009.5
20260509230203 20 202 3.2 8.0 0.00 0.36 0.36 57 1009.3
20260509225658 20 294 1.6 8.0 0.00 0.36 0.36 58 1009.5
20260509225154 20 281 8.0 9.7 0.00 0.36 0.36 58 1009.6
20260509224645 20 280 0.0 9.7 0.00 0.36 0.36 59 1009.7
20260509224142 20 195 1.6 8.0 0.00 0.36 0.36 56 1009.6
20260509223638 20 111 0.0 4.8 0.00 0.36 0.36 58 1009.6
20260509223130 20 274 3.2 9.7 0.00 0.36 0.36 57 1009.7
20260509222627 20 285 1.6 12.9 0.00 0.36 0.36 57 1009.7
20260509222122 20 261 6.4 11.3 0.00 0.36 0.36 56 1009.6
20260509221619 20 165 1.6 4.8 0.00 0.36 0.36 54 1009.7
20260509221114 20 253 4.8 14.5 0.00 0.36 0.36 57 1009.7
20260509220610 20 276 8.0 11.3 0.00 0.36 0.36 57 1009.8
20260509220107 21 198 3.2 9.7 0.00 0.36 0.36 54 1009.9
20260509215602 21 270 6.4 9.7 0.00 0.36 0.36 55 1009.8
20260509215100 20 272 8.0 8.0 0.00 0.36 0.36 55 1009.8
20260509214557 21 249 0.0 9.7 0.00 0.36 0.36 55 1009.7
20260509214053 20 306 1.6 8.0 0.00 0.36 0.36 56 1009.6
20260509213549 20 257 4.8 9.7 0.00 0.36 0.36 61 1009.7
20260509213046 21 133 16.1 16.1 0.00 0.36 0.36 56 1009.6
20260509212544 21 180 0.0 12.9 0.00 0.36 0.36 57 1009.7
20260509212041 21 126 1.6 12.9 0.00 0.36 0.36 57 1009.7
20260509211536 20 250 6.4 11.3 0.00 0.36 0.36 59 1009.6
20260509211033 21 318 0.0 11.3 0.00 0.36 0.36 56 1009.8
20260509210530 20 259 3.2 11.3 0.00 0.36 0.36 58 1009.7
20260509210026 21 267 6.4 14.5 0.00 0.36 0.36 58 1009.5
20260509205526 21 114 1.6 12.9 0.00 0.36 0.36 57 1009.7
20260509205021 21 265 3.2 9.7 0.00 0.36 0.36 57 1009.8
20260509204518 20 154 4.8 17.7 0.00 0.36 0.36 55 1009.7
20260509204014 20 248 4.8 9.7 0.00 0.36 0.36 60 1009.8
20260509203510 21 280 4.8 8.0 0.00 0.36 0.36 59 1009.8
20260509203009 20 276 4.8 8.0 0.00 0.36 0.36 61 1009.8
20260509202509 21 232 8.0 9.7 0.00 0.36 0.36 58 1009.9
20260509202004 21 233 4.8 17.7 0.00 0.36 0.36 56 1009.9
20260509201459 21 195 1.6 14.5 0.00 0.36 0.36 55 1009.8
20260509200957 21 6 0.0 6.4 0.00 0.36 0.36 62 1010.0
20260509200452 21 225 0.0 8.0 0.00 0.36 0.36 61 1010.2
20260509195948 21 230 6.4 8.0 0.00 0.36 0.36 59 1010.1
20260509195444 19 220 3.2 11.3 0.00 0.36 0.36 63 1010.3
20260509194944 20 213 3.2 4.8 0.00 0.36 0.36 66 1010.0
20260509194439 21 289 1.6 16.1 0.00 0.36 0.36 60 1010.1
20260509193937 20 222 4.8 9.7 0.00 0.36 0.36 62 1010.2
20260509193436 20 220 3.2 8.0 0.00 0.36 0.36 65 1010.3
20260509192932 20 330 3.2 8.0 0.00 0.36 0.36 65 1010.4
20260509192429 19 260 6.4 11.3 0.00 0.36 0.36 65 1010.4
20260509191924 19 276 8.0 11.3 0.00 0.36 0.36 69 1010.2
20260509191420 19 248 4.8 9.7 0.00 0.36 0.36 70 1010.3
20260509190916 18 286 4.8 11.3 0.00 0.36 0.36 67 1010.5
20260509190414 18 243 3.2 4.8 0.00 0.36 0.36 71 1010.5
20260509185911 17 148 0.0 9.7 0.00 0.36 0.36 70 1010.4
20260509185408 18 279 4.8 6.4 0.00 0.36 0.36 71 1010.6
20260509184905 17 191 3.2 8.0 0.00 0.36 0.36 71 1010.5
20260509184401 17 235 6.4 8.0 0.00 0.36 0.36 73 1010.4
20260509183859 17 245 3.2 4.8 0.00 0.36 0.36 76 1010.6
20260509183353 17 180 0.0 4.8 0.00 0.36 0.36 76 1010.3
20260509182849 17 143 4.8 6.4 0.00 0.36 0.36 74 1010.5
20260509182347 16 169 3.2 4.8 0.00 0.36 0.36 77 1010.5
20260509181844 16 225 0.0 8.0 0.00 0.36 0.36 80 1010.6
20260509181341 16 180 3.2 6.4 0.00 0.36 0.36 80 1010.6
20260509180839 16 165 1.6 4.8 0.00 0.36 0.36 82 1010.5
20260509180334 16 82 0.0 4.8 0.00 0.36 0.36 82 1010.6
20260509175831 16 135 6.4 6.4 0.00 0.36 0.36 83 1010.5
20260509175327 15 185 0.0 6.4 0.00 0.36 0.36 84 1010.4
20260509174823 15 106 3.2 6.4 0.00 0.36 0.36 84 1010.5
20260509174319 15 105 1.6 4.8 0.00 0.36 0.36 85 1010.8
20260509173815 15 192 0.0 8.0 0.00 0.36 0.36 85 1010.7
20260509173311 15 201 0.0 4.8 0.00 0.36 0.36 86 1010.7
20260509172807 15 130 3.2 6.4 0.00 0.36 0.36 87 1010.8
20260509172306 15 131 3.2 4.8 0.00 0.36 0.36 88 1010.8
20260509171800 14 281 0.0 3.2 0.00 0.36 0.36 88 1010.8
20260509171256 14 83 4.8 4.8 0.00 0.36 0.36 89 1010.9
20260509170753 14 165 0.0 1.6 0.00 0.36 0.36 90 1010.9
20260509170249 14 119 4.8 4.8 0.00 0.36 0.36 89 1011.0
20260509165748 14 128 3.2 4.8 0.00 0.36 0.36 88 1011.0
20260509165243 14 99 0.0 4.8 0.00 0.36 0.36 89 1010.9
20260509164739 14 254 0.0 4.8 0.00 0.36 0.36 88 1011.0
20260509164235 15 270 0.0 3.2 0.00 0.36 0.36 88 1011.1
20260509163732 15 255 0.0 4.8 0.00 0.36 0.36 86 1010.9
20260509163229 15 90 0.0 1.6 0.00 0.36 0.36 87 1010.9
20260509162727 15 262 0.0 3.2 0.00 0.36 0.36 87 1010.8
20260509162221 15 203 0.0 3.2 0.00 0.36 0.36 86 1011.0
20260509161717 15 123 0.0 0.0 0.00 0.36 0.36 88 1010.7
20260509161214 14 79 4.8 6.4 0.00 0.36 0.36 90 1010.9
20260509160709 13 83 0.0 3.2 0.00 0.36 0.36 90 1011.0
20260509160205 13 115 0.0 3.2 0.00 0.36 0.36 93 1010.9
20260509155701 13 45 0.0 6.4 0.00 0.36 0.36 93 1011.3
20260509155157 13 67 4.8 4.8 0.00 0.36 0.36 93 1011.0
20260509154653 13 79 4.8 4.8 0.00 0.36 0.36 93 1011.0
20260509154151 13 56 4.8 6.4 0.00 0.36 0.36 92 1011.4
20260509153647 13 131 3.2 3.2 0.00 0.36 0.36 92 1011.2
20260509153144 13 86 3.2 4.8 0.00 0.36 0.36 92 1011.2
20260509152639 13 84 3.2 4.8 0.00 0.36 0.36 92 1011.5
20260509152137 13 85 6.4 8.0 0.00 0.36 0.36 92 1011.3
20260509151634 13 33 3.2 6.4 0.00 0.36 0.36 93 1011.4
20260509151131 13 74 4.8 6.4 0.00 0.36 0.36 93 1011.5
20260509150629 12 77 3.2 4.8 0.05 0.36 0.36 92 1011.7
20260509150127 13 77 1.6 4.8 0.05 0.36 0.36 92 1011.6
20260509145623 12 103 1.6 3.2 0.00 0.33 0.33 92 1011.7
20260509145118 12 85 3.2 3.2 0.00 0.33 0.33 93 1011.6
20260509144615 12 98 3.2 4.8 0.00 0.33 0.33 93 1011.5
20260509144112 12 68 3.2 3.2 0.00 0.33 0.33 94 1011.5
20260509143609 12 74 0.0 3.2 0.00 0.33 0.33 95 1011.6
20260509143107 12 79 3.2 3.2 0.00 0.33 0.33 95 1011.4
20260509142602 12 57 3.2 4.8 0.00 0.33 0.33 96 1011.5
20260509142058 12 60 4.8 4.8 0.00 0.33 0.33 96 1011.3
20260509141554 12 54 4.8 4.8 0.00 0.33 0.33 96 1011.1
20260509141051 12 71 3.2 4.8 0.00 0.33 0.33 96 1011.6
20260509140548 12 65 3.2 4.8 0.00 0.33 0.33 96 1011.5
20260509140046 12 82 3.2 4.8 0.00 0.33 0.33 96 1011.5
20260509135543 12 60 1.6 4.8 0.05 0.33 0.33 95 1011.7
20260509135041 12 47 4.8 4.8 0.00 0.33 0.33 95 1011.5
20260509134537 12 56 3.2 3.2 0.05 0.33 0.33 95 1011.5
20260509134035 12 254 0.0 1.6 0.05 0.33 0.33 95 1011.6
20260509133532 11 325 0.0 0.0 0.05 0.33 0.33 96 1011.7
20260509133029 11 90 3.2 4.8 0.00 0.30 0.30 96 1011.8
20260509132528 11 144 3.2 4.8 0.00 0.30 0.30 96 1011.7
20260509132026 11 113 4.8 4.8 0.05 0.30 0.30 97 1011.7
20260509131521 11 101 3.2 3.2 0.05 0.30 0.30 97 1011.9
20260509131018 11 90 0.0 3.2 0.00 0.30 0.30 97 1011.7
20260509130513 11 98 0.0 1.6 0.00 0.30 0.30 97 1011.9
20260509130011 11 66 3.2 4.8 0.05 0.30 0.30 97 1011.8
20260509125507 11 78 4.8 6.4 0.05 0.30 0.30 98 1011.7
20260509125003 11 65 3.2 4.8 0.00 0.28 0.28 98 1011.9
20260509124500 11 74 3.2 4.8 0.05 0.28 0.28 98 1011.6
20260509123958 11 69 1.6 1.6 0.13 0.28 0.28 98 1011.8
20260509123455 11 74 4.8 4.8 0.13 0.28 0.28 98 1012.3
20260509122951 11 42 4.8 4.8 0.13 0.28 0.28 98 1012.2
20260509122448 11 90 0.0 1.6 0.13 0.25 0.25 98 1011.9
20260509121945 11 270 0.0 1.6 0.13 0.25 0.25 98 1012.1
20260509121442 11 71 0.0 3.2 0.13 0.23 0.23 98 1012.4
20260509120940 11 127 3.2 3.2 0.05 0.23 0.23 98 1012.2
20260509120438 11 75 0.0 1.6 0.05 0.23 0.23 98 1012.2
20260509115935 11 66 3.2 4.8 0.05 0.23 0.23 98 1012.3
20260509115432 10 105 0.0 1.6 0.05 0.20 0.20 98 1012.2
20260509114929 10 75 0.0 0.0 0.13 0.20 0.20 98 1012.4
20260509114428 10 120 0.0 3.2 0.13 0.20 0.20 98 1012.6
20260509113927 10 90 0.0 0.0 0.05 0.18 0.18 98 1012.1
20260509113424 10 84 1.6 3.2 0.05 0.18 0.18 98 1012.3
20260509112921 10 54 1.6 1.6 0.13 0.18 0.18 98 1012.2
20260509112418 10 295 3.2 3.2 0.05 0.18 0.18 98 1012.1
20260509111915 10 99 0.0 0.0 0.00 0.15 0.15 98 1012.1
20260509111412 10 45 3.2 4.8 0.00 0.15 0.15 98 1011.6
20260509110910 10 82 1.6 3.2 0.00 0.15 0.15 98 1011.6
20260509110405 10 283 3.2 4.8 0.00 0.15 0.15 98 1011.5
20260509105904 10 90 3.2 4.8 0.00 0.15 0.15 98 1011.7
20260509105402 10 60 0.0 0.0 0.00 0.15 0.15 98 1011.6
20260509104858 10 79 3.2 4.8 0.00 0.15 0.15 97 1011.6
20260509104355 10 74 0.0 0.0 0.00 0.15 0.15 97 1011.6
20260509103853 10 261 0.0 0.0 0.05 0.15 0.15 97 1011.6
20260509103350 10 74 0.0 3.2 0.05 0.15 0.15 97 1011.6
20260509102848 10 71 0.0 0.0 0.00 0.15 0.15 97 1011.6
20260509102345 10 73 3.2 3.2 0.00 0.15 0.15 97 1011.4
20260509101841 10 72 3.2 4.8 0.05 0.15 0.15 97 1011.6
20260509101337 10 66 1.6 3.2 0.05 0.15 0.15 97 1011.7
20260509100835 10 77 3.2 4.8 0.00 0.15 0.15 97 1011.4
20260509100332 10 66 1.6 3.2 0.05 0.15 0.15 97 1011.6
20260509095829 10 128 0.0 3.2 0.05 0.15 0.15 97 1011.7
20260509095326 10 66 0.0 1.6 0.00 0.13 0.13 97 1011.8
20260509094823 10 75 0.0 3.2 0.05 0.13 0.13 96 1011.8
20260509094320 10 126 1.6 3.2 0.13 0.13 0.13 96 1012.2
20260509093817 10 257 0.0 4.8 0.13 0.13 0.13 96 1012.1
20260509093314 10 277 0.0 1.6 0.05 0.10 0.10 96 1012.3
20260509092813 10 105 3.2 4.8 0.05 0.10 0.10 96 1012.3
20260509092311 10 90 0.0 3.2 0.05 0.10 0.10 95 1011.9
20260509091808 10 77 3.2 3.2 0.05 0.08 0.08 95 1012.3
20260509091305 10 77 0.0 1.6 0.05 0.08 0.08 95 1012.2
20260509090802 10 56 3.2 3.2 0.05 0.08 0.08 95 1012.2
20260509090259 10 107 0.0 3.2 0.05 0.08 0.08 94 1012.4
20260509085757 10 83 0.0 4.8 0.00 0.05 0.05 93 1012.3
20260509085254 11 95 3.2 3.2 0.05 0.05 0.05 92 1012.5
20260509084750 11 66 3.2 3.2 0.05 0.05 0.05 91 1012.5
20260509084247 11 90 0.0 0.0 0.05 0.05 0.05 91 1012.5
20260509083745 11 121 3.2 3.2 0.13 0.05 0.05 88 1012.4
20260509083241 12 90 0.0 1.6 0.18 0.05 0.05 85 1012.2
20260509082738 12 140 4.8 6.4 0.18 0.03 0.03 81 1012.1
20260509082235 12 15 0.0 3.2 0.05 0.00 0.00 77 1012.1
20260509081732 13 246 3.2 9.7 0.00 0.00 0.00 74 1012.3
20260509081230 13 250 0.0 11.3 0.00 0.00 0.00 73 1012.1
20260509080727 13 77 1.6 3.2 0.00 0.00 0.00 77 1012.1
20260509080224 12 301 0.0 6.4 0.00 0.00 0.00 75 1012.2
20260509075723 12 114 0.0 4.8 0.00 0.00 0.00 80 1011.8
20260509075220 12 174 1.6 4.8 0.00 0.00 0.00 83 1012.1
20260509074717 12 109 1.6 1.6 0.00 0.00 0.00 80 1011.4
20260509074215 12 111 1.6 1.6 0.00 0.00 0.00 80 1011.3
20260509073710 12 73 0.0 3.2 0.00 0.00 0.00 79 1010.8
20260509073207 11 114 1.6 1.6 0.00 0.00 0.00 85 1011.0
20260509072704 11 90 0.0 4.8 0.00 0.00 0.00 88 1010.9
20260509072201 11 71 1.6 3.2 0.00 0.00 0.00 88 1011.0